STARLINK-1484, 45756

Orbit data source: Space-Track

STARLINK-1484, 45756 is a payload satellite owned by SpaceX/Seattle (US) in LEO that was launched on Sat, 13 Jun 2020 UTC via an FALCON 9 launch vehicle from the Air Force Eastern Test Range (AFETR). Payload-class satellites include a variety of spacecraft equipped with specific instruments for various scientific and technological missions. These include communications satellites like Starlink; space stations such as the ISS; scientific satellites like the Hubble; Earth observation satellites from companies like Planet Labs, Umbra, and HawkEye 360; GPS; miniature CubeSats for education and research; and military/defense satellites.

Not visible in the next 10 days
Identifier
45756, 2020-038AC
Orbit
LEO
Country
Flag of USUS
Related business
Manufacturer
SpaceX/Seattle
Mission
Partially operational Commercial Communications
Bus & Motor
STARLINK, Unknown motor
Mass
260 kg wet, ~248 kg dry
Launch date (UTC)
2020-06-13 (6 years ago)
Launch vehicle
FALCON 9
Launch site
Air Force Eastern Test Range (AFETR)
Object type
Payload
Rocket body
Debris
Shape & HBR
Box + 1 Pan, 10.1 m
Radar Cross Section
13.562 m², Large (>1 m²)

Expand to show TLE details & history
Last TLE update: 3 hours ago

TLE from 3 hours ago
0 STARLINK-1484
1 45756U 20038AC  26037.66670139  .00123731  00000-0  51660-3 0  9994
2 45756  53.0043 215.2623 0002719 231.8329 278.6109 15.84806180  5955
Epoch: 2026-02-06T16:00Z
TLE epoch observation values (Epoch: 2026-02-06T16:00:03.000Z)
Latitude
23.28704°
Longitude
-0.36256°
Altitude
317.374 km
Speed
7.721 km/s
True Right ascension
01h 05m 48s
True Declination
23° 09' 15"
Sunlit
Object was in daylight at epoch
Visualization orbit readout
Latitude
Unknown
Longitude
Unknown
Altitude
Unknown
Speed
Unknown
Apparent Right ascension
Unknown
Apparent Declination
Unknown
Sunlit
N/A
Visualization observer readout
Local Sidereal Time
21:18:20
Azimuth
Unknown
Elevation
Unknown
Doppler factor
Unknown
Orbital elements
Apogee altitude
318.979 km
Perigee altitude
315.338 km
Semi-major axis
6,695.296 km
Eccentricity
0.00027
Inclination
53.0043°
RAAN
215.2623°
Arg. of periapsis
231.8329°
True anomaly
278.58009°
Mean anomaly
278.6109°
Eccentric anomaly
278.5955°
Mean motion
3.96176 °/min
Orbital period
90.87 mins
BSTAR
0.0005166
Loading maneuver chart data...
Computing Atmospheric mass density...
Loading historical data...
Loading historical data...
Loading historical data...
Loading historical data...
Loading historical data...
Loading historical data...
Loading historical data...

Documentation

Showing up to 5 results
|